Vertical_Velocity
0 1 2 -1 0 -1 -0 1 1 -0 0 -1 1 -1 1 0 0 0 0 4 -1 -0 -0 -0 -1 -0 -1 -1 2 -1 1 -0 -0 1 0 0 0 0 1 0 1 0 -0
-0 0 2 -1 1 -0 0 1 -0 1 1 0 1 1 1 -0 0 -1 2 0 0 -1 -0 -1 0 -1 0 -1 -0 -1 0 -0 -1 -0 1 1 1 0 -0 1 -0 -1 2
1 0 1 -1 -1 1 0 1 2 -1 0 -0 1 1 1 1 0 1 1 0 0 -1 1 -1 1 -0 -0 1 -0 -0 -1 -1 -0 -1 1 2 0 1 0 -0 0 0 -1
0 -1 1 1 1 1 -0 0 1 2 1 -1 -2 0 -0 1 -0 0 2 1 1 -0 -0 -0 -1 -1 -1 1 0 -0 -1 -1 0 0 1 1 1 0 1 1 -0 -0 -1
1 1 0 1 1 2 -0 -1 -0 1 1 0 1 1 -1 -0 -1 -1 -1 0 1 2 -1 -0 -0 -1 -1 -0 1 -0 -1 -1 0 1 1 1 2 1 2 1 1 1 -0
-3 0 0 1 -0 0 2 2 1 0 1 -0 1 2 2 0 0 -1 -0 -2 -1 1 1 -0 0 0 -1 -1 -0 0 -2 -1 1 0 1 -0 1 -0 1 0 1 1 1
0 1 -1 0 2 0 2 2 0 0 -1 -0 -0 1 1 1 2 -1 0 -2 -0 0 0 2 1 -1 -0 -1 0 -2 -1 -1 0 1 2 -0 -0 0 1 1 1 2 1
0 -0 2 3 3 5 -1 0 -0 2 1 -3 1 1 2 1 1 0 -1 -2 -0 -0 -1 4 0 3 1 -1 -1 -1 -1 -3 2 1 1 1 1 -3 1 1 1 1 2
1 6 1 2 -0 4 3 3 1 1 0 2 -1 -2 1 2 1 -1 -1 0 1 -1 -2 -1 2 -0 1 2 -1 -1 -1 -1 1 -1 2 -3 1 -2 1 1 3 2 2
-15 -18 -21 -6 2 -1 4 3 2 -2 0 9 0 1 0 -1 -0 0 2 -0 2 3 1 -1 2 -0 -0 1 0 -0 1 -1 -1 1 -3 2 2 3 -1 0 -0 0 0
-3 -3 -4 -2 -0 -2 0 4 6 6 3 1 -0 1 3 -1 1 -2 -1 2 0 3 4 2 3 2 -1 -0 0 -1 1 -0 -1 -0 -1 0 4 1 1 1 -0 -0 -1
4 1 1 -2 -1 0 -3 -1 3 -1 -3 -0 1 1 2 3 0 0 1 2 -0 2 3 3 1 4 2 -0 1 -1 -0 0 -0 -0 1 -1 0 1 -0 2 1 1 -1
1 1 4 -2 -1 2 1 -2 2 6 5 3 1 13 -2 -0 1 4 -0 2 1 2 2 1 3 0 3 3 1 -0 -1 1 -1 -1 1 1 0 0 1 1 -0 1 1
4 1 -2 3 1 0 5 1 -4 -0 10 -5 5 7 3 3 -1 1 3 1 0 1 2 2 3 2 1 1 4 1 -1 -0 1 1 -1 -0 1 -0 2 2 1 -0 2
3 2 4 2 3 -0 1 3 2 0 2 0 -7 1 7 3 -2 0 -3 -2 2 1 2 1 2 2 2 0 1 5 1 -1 1 2 -0 -2 0 1 1 1 1 0 2
4 4 2 2 6 3 3 3 3 2 -1 -0 6 7 1 0 1 4 6 5 -0 -2 -2 4 2 1 3 2 0 1 3 0 -1 0 1 -1 2 1 1 0 3 -2 1
3 -0 3 -0 4 7 2 3 6 -0 -1 3 2 3 5 -0 5 28 23 20 2 8 2 3 3 2 4 3 -1 0 2 -1 -2 2 -3 6 0 1 2 2 -0 0 1
1 3 1 0 0 2 6 6 2 3 0 2 0 -1 -4 0 3 5 2 16 -5 -3 4 1 3 3 3 4 1 -2 1 2 -3 4 -1 1 -1 1 1 2 4 2 1
-0 -2 0 1 0 -2 0 7 5 2 2 5 2 1 0 -1 2 5 1 7 3 1 -5 -5 4 3 4 4 -1 -2 -0 2 -1 -1 3 -1 -0 1 1 2 3 1 1
2 1 2 -0 1 1 -1 1 4 2 7 4 2 -0 0 7 -2 -2 5 4 4 -1 -1 -0 -0 4 0 1 0 -0 -2 2 1 -0 -2 1 1 1 0 1 2 0 0
0 5 2 3 0 2 2 -1 0 2 5 3 6 -2 2 1 2 0 -1 1 3 6 7 0 -3 -1 0 1 -3 3 6 -0 0 1 2 -3 -0 -0 1 1 1 1 1
1 -2 2 2 3 2 4 2 -1 -3 3 5 -3 6 4 0 2 3 3 2 0 -1 5 4 1 3 -0 1 3 -5 1 -3 3 7 1 0 -2 -1 2 -1 0 -0 0
2 2 1 1 2 2 2 4 1 0 4 -0 -5 6 3 7 3 0 4 2 1 -2 1 2 -1 -1 4 -2 3 -5 -8 5 10 -1 5 2 0 -2 -5 -1 2 1 1
-4 -4 3 1 2 1 -1 2 4 4 3 -2 1 4 4 1 2 3 4 1 5 2 -1 5 -0 3 -4 2 -3 -5 1 7 -5 6 0 3 0 3 -1 -0 -1 1 1
-1 -0 -1 -4 3 0 -0 -1 1 4 2 -1 -0 3 4 4 6 3 1 1 2 -6 -0 1 -1 -3 -2 1 -1 -5 -2 1 1 1 3 4 -1 1 -0 -0 -2 1 -1
-2 -2 -2 -4 -7 -3 4 -0 1 0 1 3 -1 3 1 2 1 4 0 -1 2 -1 -5 2 2 -3 -0 3 -2 -4 -3 2 10 1 4 -6 1 1 -2 -3 0 1 0
Height
5841 5842 5842 5843 5844 5846 5847 5849 5851 5852 5852 5853 5854 5855 5856 5857 5858 5859 5858 5859 5861 5862 5864 5866 5868 5869 5870 5870 5872 5873 5875 5877 5877 5878 5878 5879 5880 5881 5882 5883 5885 5886 5888
5837 5838 5839 5840 5840 5841 5843 5844 5846 5847 5849 5850 5852 5853 5853 5854 5856 5856 5856 5857 5859 5860 5861 5864 5866 5867 5869 5870 5872 5873 5874 5876 5877 5878 5878 5879 5880 5881 5882 5883 5885 5887 5890
5833 5834 5835 5836 5836 5837 5839 5840 5842 5844 5845 5847 5849 5850 5851 5852 5853 5853 5854 5854 5856 5858 5860 5861 5864 5866 5867 5869 5870 5872 5872 5874 5876 5877 5877 5878 5879 5881 5882 5884 5886 5888 5890
5829 5829 5830 5831 5832 5833 5834 5836 5838 5840 5842 5843 5845 5845 5847 5849 5850 5851 5851 5852 5853 5856 5858 5859 5862 5864 5866 5867 5869 5870 5871 5872 5874 5876 5877 5878 5879 5880 5882 5884 5886 5888 5890
5824 5825 5826 5827 5828 5829 5830 5832 5834 5835 5837 5840 5840 5841 5843 5845 5846 5847 5849 5850 5850 5853 5855 5857 5859 5862 5864 5865 5867 5869 5869 5871 5873 5874 5876 5877 5878 5879 5881 5883 5885 5887 5890
5820 5820 5820 5822 5823 5823 5824 5825 5826 5829 5831 5833 5835 5837 5839 5841 5842 5843 5844 5846 5847 5848 5851 5854 5856 5859 5861 5862 5865 5866 5867 5869 5871 5872 5874 5876 5878 5879 5880 5881 5884 5886 5888
5814 5814 5815 5816 5816 5817 5817 5818 5820 5822 5825 5827 5829 5831 5834 5835 5837 5840 5841 5842 5843 5845 5847 5850 5852 5855 5857 5859 5861 5863 5865 5867 5868 5870 5872 5873 5876 5878 5879 5880 5882 5884 5886
5810 5809 5809 5809 5809 5810 5811 5812 5814 5816 5818 5821 5823 5825 5827 5830 5832 5834 5836 5838 5840 5840 5843 5846 5849 5851 5854 5856 5858 5860 5862 5864 5866 5867 5869 5871 5873 5875 5877 5879 5881 5882 5884
5803 5803 5803 5804 5804 5804 5805 5806 5809 5811 5812 5814 5816 5819 5821 5824 5826 5829 5831 5833 5835 5837 5839 5841 5844 5846 5849 5852 5854 5857 5859 5861 5862 5864 5866 5867 5870 5872 5876 5878 5880 5881 5883
5794 5793 5793 5794 5795 5797 5798 5800 5802 5803 5805 5807 5808 5811 5813 5817 5820 5823 5826 5828 5830 5833 5835 5838 5839 5842 5844 5847 5850 5853 5855 5857 5859 5862 5862 5865 5867 5870 5873 5876 5878 5880 5882
5789 5789 5790 5791 5791 5789 5790 5790 5792 5795 5796 5798 5801 5803 5806 5810 5813 5816 5819 5822 5825 5828 5830 5833 5835 5837 5840 5842 5845 5848 5851 5853 5855 5858 5859 5861 5864 5867 5870 5873 5875 5878 5880
5781 5781 5783 5785 5785 5785 5786 5786 5787 5787 5788 5791 5794 5797 5799 5802 5805 5808 5811 5814 5817 5821 5824 5826 5828 5831 5834 5837 5840 5843 5847 5849 5851 5854 5856 5858 5861 5864 5867 5870 5872 5875 5877
5771 5772 5773 5774 5776 5777 5778 5780 5781 5780 5781 5783 5787 5794 5793 5794 5796 5799 5803 5806 5809 5813 5816 5819 5822 5825 5828 5831 5834 5837 5840 5844 5847 5849 5852 5855 5858 5860 5863 5867 5868 5871 5873
5758 5760 5761 5764 5765 5766 5768 5769 5772 5773 5771 5773 5779 5783 5785 5787 5789 5790 5792 5795 5799 5803 5806 5811 5815 5819 5822 5825 5828 5831 5834 5838 5842 5845 5847 5851 5854 5856 5858 5862 5864 5867 5869
5743 5746 5747 5750 5752 5754 5757 5759 5762 5765 5766 5768 5770 5772 5774 5777 5781 5783 5785 5785 5787 5790 5796 5802 5807 5811 5815 5818 5821 5825 5828 5831 5835 5839 5842 5845 5849 5852 5854 5857 5859 5862 5864
5726 5728 5732 5735 5738 5740 5742 5746 5750 5753 5756 5760 5763 5764 5766 5768 5771 5772 5774 5778 5781 5782 5785 5792 5796 5801 5807 5811 5814 5818 5822 5824 5828 5832 5835 5839 5843 5846 5849 5852 5854 5856 5859
5707 5710 5713 5717 5721 5725 5727 5730 5734 5739 5744 5749 5753 5755 5757 5760 5762 5749 5759 5764 5772 5775 5778 5782 5787 5792 5797 5802 5806 5810 5814 5817 5820 5825 5828 5832 5836 5840 5843 5845 5848 5851 5854
5689 5690 5694 5697 5702 5707 5711 5715 5718 5722 5729 5735 5738 5743 5747 5750 5752 5748 5751 5756 5764 5767 5768 5774 5778 5782 5787 5793 5798 5801 5806 5811 5813 5817 5821 5825 5829 5833 5836 5838 5843 5845 5848
5668 5671 5673 5677 5682 5686 5691 5696 5701 5705 5711 5718 5725 5729 5732 5736 5739 5741 5743 5748 5752 5758 5762 5765 5770 5773 5779 5784 5788 5793 5797 5803 5806 5808 5814 5817 5821 5825 5829 5832 5836 5838 5841
5647 5648 5652 5655 5660 5665 5670 5675 5681 5687 5693 5698 5705 5713 5718 5722 5726 5728 5732 5737 5742 5747 5752 5757 5761 5765 5770 5774 5779 5783 5788 5793 5798 5802 5805 5810 5814 5817 5821 5825 5828 5831 5834
5622 5625 5628 5633 5637 5642 5648 5653 5659 5666 5672 5679 5685 5692 5701 5705 5710 5716 5720 5723 5729 5735 5740 5745 5750 5755 5760 5764 5769 5775 5778 5784 5790 5795 5798 5801 5805 5809 5813 5816 5820 5823 5826
5596 5598 5602 5607 5612 5618 5624 5631 5637 5643 5651 5657 5665 5673 5680 5688 5695 5699 5706 5712 5718 5724 5729 5735 5740 5746 5750 5755 5760 5764 5770 5774 5781 5786 5789 5793 5796 5800 5804 5807 5811 5815 5818
5566 5570 5574 5577 5584 5591 5597 5605 5612 5619 5626 5634 5644 5653 5660 5668 5677 5684 5690 5696 5704 5711 5718 5724 5729 5735 5740 5744 5749 5754 5759 5768 5771 5776 5781 5784 5787 5790 5793 5797 5802 5806 5809
5533 5538 5542 5547 5553 5559 5567 5577 5585 5594 5602 5609 5621 5631 5639 5647 5656 5665 5673 5680 5688 5696 5704 5711 5717 5723 5728 5734 5737 5744 5750 5757 5761 5768 5771 5774 5777 5781 5784 5788 5792 5796 5799
5503 5507 5510 5514 5521 5528 5535 5545 5556 5566 5576 5586 5594 5606 5616 5625 5635 5644 5653 5662 5670 5678 5687 5695 5703 5709 5715 5722 5727 5732 5738 5745 5751 5757 5761 5764 5768 5771 5774 5778 5781 5785 5788
5481 5482 5483 5485 5489 5497 5504 5512 5523 5535 5546 5559 5570 5580 5591 5601 5611 5622 5630 5641 5652 5660 5669 5679 5688 5695 5702 5709 5715 5721 5728 5735 5740 5744 5749 5753 5758 5762 5764 5767 5771 5774 5777